This demonstration page uses our WeatherBlox Daily Observations layout. Learn more.

Left ArrowRight Arrow

34.74481, -87.66753

Hourly Observations for June 4, 2020

Temp ( °F °C ) Dew Point ( °F °C ) Humidity (%) Winds ( mph kmh ) Pressure ( in mb ) Visibility ( mi km ) Precip ( " mm )
12:53 am 00:53 Clear 73 22.8 68 20 84 84 WSW 3 6 29.89 1012 10 16 0.00 0.00
1:53 am 01:53 Clear 73 22.8 69 20.6 87 87 WSW 5 7 29.89 1012 10 16 0.00 0.00
2:53 am 02:53 Clear 73 22.8 68 20 84 84 Calm 29.89 1012 10 16 0.00 0.00
3:53 am 03:53 Clear 71 21.7 68 20 90 90 SSE 5 7 29.88 1012 10 16 0.00 0.00
4:53 am 04:53 Clear 71 21.7 68 20 90 90 SSE 6 9 29.90 1012 10 16 0.00 0.00
5:53 am 05:53 Sunny 71 21.7 68 20 90 90 S 5 7 29.91 1013 10 16 0.00 0.00
6:53 am 06:53 Mostly Sunny 72 22.2 68 20 87 87 SSW 5 7 29.92 1013 10 16 0.00 0.00
7:53 am 07:53 Cloudy 75 23.9 69 20.6 82 82 S 7 11 29.93 1014 10 16 0.00 0.00
8:53 am 08:53 Sunny 77 25 68 20 74 74 SSW 6 9 29.94 1014 10 16 0.00 0.00
9:53 am 09:53 Mostly Sunny 80 26.7 69 20.6 69 69 S 7 11 29.93 1014 10 16 0.00 0.00
10:53 am 10:53 Mostly Cloudy 83 28.3 69 20.6 63 63 W 7 11 29.93 1013 10 16 0.00 0.00
11:05 am 11:05 Mostly Cloudy 83 28.3 69 20.6 63 63 WSW 7 11 29.92 1013 10 16 0.00 0.00
11:40 am 11:40 Mostly Cloudy with Thunderstorms 83 28.3 70 21.1 65 65 WSW 9 15 29.92 1013 10 16 0.00 0.00
11:48 am 11:48 Mostly Cloudy with Thunderstorms 82 28 70 21 66 66 W 9 15 29.92 1013 10 16 0.00 0.00
11:53 am 11:53 Mostly Cloudy with Nearby Thunderstorms 82 27.8 69 20.6 65 65 WSW 7 11 29.92 1013 10 16 0.00 0.00
12:01 pm 12:01 Mostly Cloudy 82 27.8 70 21.1 67 67 W 7 11 29.91 1013 10 16 0.00 0.00
12:53 pm 12:53 Mostly Cloudy 84 28.9 70 21.1 63 63 VRB 3 6 29.90 1013 10 16 0.00 0.00
1:08 pm 13:08 Partly Cloudy 85 29.4 70 21.1 61 61 W 8 13 29.88 1012 10 16 0.00 0.00
1:53 pm 13:53 Mostly Sunny 85 29.4 69 20.6 59 59 S 12 19 29.86 1011 10 16 0.00 0.00
2:53 pm 14:53 Mostly Cloudy 86 30 70 21.1 59 59 SW 13 20 29.84 1011 10 16 0.00 0.00
3:53 pm 15:53 Partly Cloudy 87 30.6 69 20.6 55 55 SSW 13 20 29.83 1010 10 16 0.00 0.00
4:53 pm 16:53 Mostly Cloudy 88 31.1 70 21.1 55 55 SW 17 28 29.83 1010 10 16 0.00 0.00
5:53 pm 17:53 Sunny 86 30 69 20.6 57 57 W 15 24 29.83 1010 10 16 0.00 0.00
6:53 pm 18:53 Sunny 83 28.3 70 21.1 65 65 SW 9 15 29.83 1010 10 16 0.00 0.00
7:53 pm 19:53 Sunny 81 27.2 71 21.7 72 72 SSW 5 7 29.84 1011 10 16 0.00 0.00
8:53 pm 20:53 Clear 79 26.1 70 21.1 74 74 SSW 6 9 29.85 1011 10 16 0.00 0.00
9:53 pm 21:53 Clear 78 25.6 70 21.1 76 76 SSW 7 11 29.87 1011 10 16 0.00 0.00
10:53 pm 22:53 Mostly Cloudy 78 25.6 69 20.6 74 74 SSW 8 13 29.87 1012 10 16 0.00 0.00
11:53 pm 23:53 Cloudy 78 25.6 70 21.1 76 76 SW 9 15 29.87 1012 10 16 0.00 0.00

Powered by AerisWeather